When you browse on this site, cookies collect data to enhance your experience and personalize the content and advertising you see.
Visit our Privacy Policy to learn more. By continuing to use the site, you agree to this use of cookies and data.
EN

Hourly Weather Gogolowa

Today, 22 September, Tuesday

Time Temperature Precipitation Wind Pressure Humidity
00:00 +16°C° 0 mm 1 mps 741 mmHg 63%
01:00 +16°C° 0 mm 2 mps 741 mmHg 64%
02:00 +16°C° 0 mm 2 mps 741 mmHg 64%
03:00 +15°C° 0 mm 2 mps 741 mmHg 64%
04:00 +15°C° 0 mm 2 mps 740 mmHg 64%
05:00 +16°C° 0 mm 2 mps 740 mmHg 62%
06:00 +16°C° 0 mm 2 mps 740 mmHg 61%
07:00 +17°C° 0 mm 2 mps 741 mmHg 57%
08:00 +19°C° 0 mm 2 mps 741 mmHg 51%
09:00 +21°C° 0 mm 2 mps 740 mmHg 44%
10:00 +25°C° 0 mm 3 mps 740 mmHg 37%
11:00 +25°C° 0 mm 3 mps 740 mmHg 36%
12:00 +26°C° 0 mm 3 mps 740 mmHg 34%
13:00 +27°C° 0 mm 3 mps 740 mmHg 33%
14:00 +27°C° 0 mm 3 mps 739 mmHg 36%
15:00 +27°C° 0 mm 2 mps 739 mmHg 38%
16:00 +26°C° 0 mm 2 mps 738 mmHg 41%
17:00 +24°C° 0 mm 2 mps 738 mmHg 44%
18:00 +23°C° 0 mm 2 mps 738 mmHg 48%
19:00 +20°C° 0 mm 2 mps 738 mmHg 51%
20:00 +19°C° 0 mm 2 mps 737 mmHg 52%
21:00 +18°C° 0 mm 2 mps 737 mmHg 53%
22:00 +18°C° 0 mm 2 mps 737 mmHg 55%
23:00 +18°C° 0 mm 2 mps 737 mmHg 55%

Tomorrow, 23 September, Wednesday

Time Temperature Precipitation Wind Pressure Humidity
00:00 +17°C° 0 mm 2 mps 736 mmHg 56%
01:00 +17°C° 0 mm 2 mps 736 mmHg 57%
02:00 +17°C° 0 mm 2 mps 736 mmHg 57%
03:00 +16°C° 0 mm 2 mps 736 mmHg 57%
04:00 +16°C° 0 mm 2 mps 735 mmHg 57%
05:00 +17°C° 0 mm 2 mps 735 mmHg 58%
06:00 +17°C° 0 mm 2 mps 735 mmHg 58%
07:00 +19°C° 0 mm 1 mps 735 mmHg 58%
08:00 +19°C° 0.1 mm 2 mps 735 mmHg 57%
09:00 +21°C° 0.1 mm 2 mps 735 mmHg 55%
10:00 +23°C° 0.1 mm 2 mps 735 mmHg 53%
11:00 +23°C° 0.2 mm 2 mps 735 mmHg 56%
12:00 +23°C° 0.2 mm 2 mps 735 mmHg 58%
13:00 +23°C° 0.2 mm 2 mps 735 mmHg 60%
14:00 +23°C° 0 mm 2 mps 735 mmHg 59%
15:00 +24°C° 0 mm 2 mps 734 mmHg 58%
16:00 +24°C° 0 mm 2 mps 734 mmHg 57%
17:00 +23°C° 0 mm 2 mps 734 mmHg 61%
18:00 +20°C° 0 mm 2 mps 734 mmHg 65%
19:00 +19°C° 0 mm 2 mps 734 mmHg 70%
20:00 +18°C° 0 mm 2 mps 734 mmHg 70%
21:00 +18°C° 0 mm 2 mps 734 mmHg 71%
22:00 +17°C° 0 mm 2 mps 734 mmHg 71%
23:00 +18°C° 0 mm 1 mps 734 mmHg 72%

Day after tomorrow, 24 September, Thursday

Time Temperature Precipitation Wind Pressure Humidity
00:00 +16°C° 0 mm 1 mps 734 mmHg 72%
01:00 +16°C° 0 mm 1 mps 734 mmHg 73%
02:00 +16°C° 0 mm 1 mps 734 mmHg 74%
03:00 +16°C° 0 mm 1 mps 734 mmHg 76%
04:00 +16°C° 0 mm 1 mps 734 mmHg 77%
05:00 +16°C° 0 mm 2 mps 734 mmHg 76%
06:00 +16°C° 0 mm 2 mps 734 mmHg 76%
07:00 +17°C° 0 mm 2 mps 734 mmHg 75%
08:00 +19°C° 0 mm 2 mps 734 mmHg 70%
09:00 +20°C° 0 mm 3 mps 734 mmHg 65%
10:00 +22°C° 0 mm 3 mps 735 mmHg 60%
11:00 +24°C° 0.1 mm 3 mps 735 mmHg 59%
12:00 +24°C° 0.1 mm 3 mps 734 mmHg 58%
13:00 +25°C° 0.1 mm 4 mps 734 mmHg 57%
14:00 +25°C° 0.2 mm 3 mps 734 mmHg 59%
15:00 +24°C° 0.2 mm 3 mps 734 mmHg 60%
16:00 +24°C° 0.2 mm 3 mps 734 mmHg 61%
17:00 +23°C° 0 mm 2 mps 734 mmHg 66%
18:00 +20°C° 0 mm 2 mps 734 mmHg 71%
19:00 +19°C° 0 mm 2 mps 734 mmHg 76%
20:00 +19°C° 0 mm 2 mps 734 mmHg 78%
21:00 +18°C° 0 mm 2 mps 734 mmHg 80%
22:00 +17°C° 0 mm 2 mps 734 mmHg 83%
23:00 +17°C° 0 mm 2 mps 733 mmHg 83%

25 September, Friday

Time Temperature Precipitation Wind Pressure Humidity
00:00 +17°C° 0 mm 2 mps 732 mmHg 84%
01:00 +16°C° 0 mm 2 mps 732 mmHg 85%
02:00 +16°C° 0 mm 2 mps 731 mmHg 84%
03:00 +16°C° 0 mm 2 mps 731 mmHg 83%
04:00 +16°C° 0 mm 2 mps 730 mmHg 83%
05:00 +16°C° 0 mm 3 mps 729 mmHg 80%
06:00 +17°C° 0 mm 3 mps 729 mmHg 78%
07:00 +17°C° 0 mm 3 mps 728 mmHg 76%
08:00 +19°C° 0 mm 4 mps 728 mmHg 70%
09:00 +21°C° 0 mm 5 mps 728 mmHg 63%
10:00 +23°C° 0 mm 6 mps 727 mmHg 57%
11:00 +22°C° 0.2 mm 6 mps 727 mmHg 59%
12:00 +22°C° 0.2 mm 6 mps 726 mmHg 62%
13:00 +21°C° 0.2 mm 5 mps 726 mmHg 64%
14:00 +20°C° 0.4 mm 5 mps 726 mmHg 68%
15:00 +19°C° 0.4 mm 4 mps 725 mmHg 73%
16:00 +19°C° 0.4 mm 3 mps 725 mmHg 77%
17:00 +18°C° 0.4 mm 3 mps 725 mmHg 81%
18:00 +17°C° 0.4 mm 2 mps 725 mmHg 84%
19:00 +16°C° 0.4 mm 2 mps 725 mmHg 87%
20:00 +16°C° 0.2 mm 2 mps 725 mmHg 88%
21:00 +14°C° 0.2 mm 3 mps 725 mmHg 88%
22:00 +14°C° 0.2 mm 3 mps 725 mmHg 88%
23:00 +13°C° 0.6 mm 3 mps 725 mmHg 90%

26 September, Saturday

Time Temperature Precipitation Wind Pressure Humidity
00:00 +13°C° 0.6 mm 3 mps 724 mmHg 91%
01:00 +13°C° 0.6 mm 3 mps 724 mmHg 92%
02:00 +13°C° 3.6 mm 4 mps 723 mmHg 93%
03:00 +13°C° 3.6 mm 4 mps 722 mmHg 94%
04:00 +13°C° 3.6 mm 4 mps 722 mmHg 94%
05:00 +13°C° 1.8 mm 3 mps 721 mmHg 94%
06:00 +13°C° 1.8 mm 3 mps 721 mmHg 94%
07:00 +13°C° 1.8 mm 3 mps 721 mmHg 94%
08:00 +13°C° 0.7 mm 3 mps 721 mmHg 93%
09:00 +13°C° 0.7 mm 3 mps 721 mmHg 92%
10:00 +13°C° 0.7 mm 3 mps 722 mmHg 91%
11:00 +13°C° 0.3 mm 3 mps 722 mmHg 90%
12:00 +13°C° 0.3 mm 3 mps 723 mmHg 89%
13:00 +13°C° 0.3 mm 3 mps 723 mmHg 87%
14:00 +13°C° 0 mm 3 mps 724 mmHg 87%
15:00 +12°C° 0 mm 3 mps 724 mmHg 87%
16:00 +12°C° 0 mm 3 mps 724 mmHg 88%
17:00 +11°C° 0 mm 3 mps 725 mmHg 88%
18:00 +11°C° 0 mm 4 mps 725 mmHg 88%
19:00 +10°C° 0 mm 4 mps 725 mmHg 88%
20:00 +9°C° 0.9 mm 5 mps 724 mmHg 88%
21:00 +8°C° 0.9 mm 5 mps 724 mmHg 89%
22:00 +8°C° 0.9 mm 6 mps 723 mmHg 89%
23:00 +8°C° 2.7 mm 6 mps 723 mmHg 90%

27 September, Sunday

Time Temperature Precipitation Wind Pressure Humidity
00:00 +8°C° 2.7 mm 6 mps 722 mmHg 91%
01:00 +8°C° 2.7 mm 6 mps 721 mmHg 92%
02:00 +8°C° 3.6 mm 6 mps 720 mmHg 92%
03:00 +8°C° 3.6 mm 6 mps 720 mmHg 92%
04:00 +8°C° 3.6 mm 6 mps 719 mmHg 93%
05:00 +8°C° 1.6 mm 6 mps 719 mmHg 93%
06:00 +8°C° 1.6 mm 5 mps 719 mmHg 92%
07:00 +9°C° 1.6 mm 5 mps 719 mmHg 92%
08:00 +10°C° 0.3 mm 4 mps 719 mmHg 91%
09:00 +10°C° 0.3 mm 3 mps 719 mmHg 90%
10:00 +10°C° 0.3 mm 3 mps 719 mmHg 88%
11:00 +10°C° 0.2 mm 2 mps 719 mmHg 88%
12:00 +12°C° 0.2 mm 2 mps 720 mmHg 87%
13:00 +12°C° 0.2 mm 2 mps 720 mmHg 86%
14:00 +12°C° 0.3 mm 2 mps 720 mmHg 87%
15:00 +12°C° 0.3 mm 2 mps 721 mmHg 88%
16:00 +12°C° 0.3 mm 2 mps 721 mmHg 89%
17:00 +10°C° 0.4 mm 2 mps 722 mmHg 89%
18:00 +10°C° 0.4 mm 2 mps 722 mmHg 90%
19:00 +10°C° 0.4 mm 2 mps 723 mmHg 90%
20:00 +10°C° 0.7 mm 2 mps 723 mmHg 90%
21:00 +9°C° 0.7 mm 2 mps 724 mmHg 90%
22:00 +9°C° 0.7 mm 2 mps 724 mmHg 90%
23:00 +9°C° 0.6 mm 3 mps 725 mmHg 90%
Show more